[[{"header":{"parameterUnit":"m.s-1","parameterCategory":1,"la1":30.2991,"la2":30.254,"lo1":-89.0895,"lo2":-89.0444,"dy":0.0017,"dx":0.0017,"nx":28,"ny":28,"refTime":"2024-09-25T09:00:00:Z","depth":0,"parameterNumber":2,"parameterNumberName":"U-component_of_WINDS"},"data":[0,0,0,0,0,0,0,0,0,0,0,0,0,0,0,0,0,0,0,0,0,0,0,0,0,0,0,0,0,0,0,0,0,0,0,0,0,0,0,0,0,0,0,0,0,0,0,0,0,0,0,0,0,0,0,0,0,0,-0.847,-0.847,0,-0.8545,-0.8545,-0.8546,-0.8547,-0.8546,-0.8545,-0.8544,-0.8624,-0.8627,-0.863,0,0,0,0,0,0,0,0,0,0,0,0,0,-0.8329,-0.8331,-0.8469,-0.847,-0.8471,-0.8544,-0.8545,-0.8547,-0.8547,-0.8546,-0.8545,-0.8544,-0.8623,-0.8627,-0.8631,0,0,0,0,0,0,0,0,0,0,0,0,0,-0.8395,-0.8332,-0.8469,-0.848,-0.8482,-0.8544,-0.8546,-0.8547,-0.8548,-0.8546,-0.8545,-0.8543,-0.8622,-0.8627,-0.8631,-0.8688,0,0,-0.8645,-0.8647,0,0,0,0,0,0,0,0,-0.8392,-0.8401,-0.8478,-0.848,-0.8482,-0.8535,-0.8525,-0.8594,-0.8548,-0.8523,-0.8544,-0.8543,-0.8596,-0.8603,-0.862,-0.8692,-0.8695,-0.8645,-0.8648,-0.865,-0.8651,0,0,0,0,0,0,0,-0.8387,-0.8397,-0.8499,-0.8479,-0.8481,-0.8482,-0.849,-0.8538,-0.8567,-0.8525,-0.8525,-0.8534,-0.8597,-0.8616,-0.8622,-0.8696,-0.8645,-0.8649,-0.8652,-0.8654,-0.8818,-0.8819,0,0,0,0,0,0,-0.838,-0.8393,-0.8497,-0.8501,-0.8432,-0.8486,-0.8495,-0.8519,-0.8566,-0.8572,-0.8535,-0.8534,-0.8609,-0.8617,-0.8625,-0.8694,-0.865,-0.8654,-0.8657,-0.8816,-0.8818,-0.882,0,0,0,0,0,0,-0.8377,-0.8389,-0.8494,-0.8448,-0.8461,-0.849,-0.8518,-0.8522,-0.854,-0.8574,-0.8579,-0.8549,-0.8608,-0.8618,-0.8672,-0.8697,-0.8656,-0.866,-0.8814,-0.8817,-0.8819,-0.8834,0,0,0,0,0,0,-0.8373,-0.8388,-0.8409,-0.8448,-0.8463,-0.8539,-0.8519,-0.8524,-0.8548,-0.8547,-0.8588,-0.8594,-0.8607,-0.8665,-0.8676,-0.8703,-0.8664,-0.8812,-0.8815,-0.8818,-0.8831,-0.8836,-0.8841,0,0,0,0,0,-0.8368,-0.8411,-0.8411,-0.8423,-0.8491,-0.8541,-0.855,-0.8564,-0.855,-0.8572,-0.8593,-0.8592,-0.8692,-0.8671,-0.8683,-0.8711,-0.8811,-0.8814,-0.8818,-0.8829,-0.8835,-0.8841,0,0,0,0,0,0,-0.8377,-0.8417,-0.8416,-0.8474,-0.8504,-0.8541,-0.8569,-0.857,-0.8606,-0.8603,-0.862,-0.8629,-0.8683,-0.8702,-0.8677,-0.8768,-0.875,-0.8756,-0.8754,-0.876,-0.8765,-0.876,-0.8668,0,0,0,0,0,-0.8385,-0.8421,-0.8455,-0.8502,-0.8517,-0.854,-0.8563,-0.8571,-0.8603,-0.8616,-0.8641,-0.8673,-0.8712,-0.8737,-0.8774,-0.8833,-0.8843,-0.8859,-0.8864,-0.8867,-0.8873,-0.8906,-0.8914,-0.8832,-0.8832,-0.8832,0,0,-0.8403,-0.843,-0.8452,-0.8505,-0.8529,-0.8567,-0.8551,-0.8592,-0.8621,-0.8623,-0.8674,-0.8694,-0.8731,-0.8787,-0.8813,-0.8805,-0.8897,-0.8872,-0.8875,-0.8879,-0.891,-0.8918,-0.8925,-0.8835,-0.8834,-0.8834,0,0,-0.8456,-0.8479,-0.8521,-0.8545,-0.8581,-0.8596,-0.8606,-0.8643,-0.8656,-0.8708,-0.871,-0.8744,-0.881,-0.8836,-0.8858,-0.8918,-0.8919,-0.893,-0.8956,-0.8987,-0.8994,-0.9,-0.9022,-0.9029,-0.8935,-0.8935,-0.8935,0,-0.8475,-0.8531,-0.8543,-0.8584,-0.8607,-0.8608,-0.8651,-0.8674,-0.8721,-0.8738,-0.8727,-0.8809,-0.8834,-0.8897,-0.8911,-0.8929,-0.8941,-0.8926,-0.8992,-0.8998,-0.9003,-0.9024,-0.9033,-0.8936,-0.8936,-0.8936,-0.8936,0,-0.8552,-0.8591,-0.8621,-0.8664,-0.8691,-0.8732,-0.8751,-0.8776,-0.8782,-0.8798,-0.885,-0.888,-0.8923,-0.8938,-0.8944,-0.9002,-0.8995,-0.8988,-0.897,-0.9012,-0.9032,-0.904,-0.8938,-0.8938,-0.8937,-0.8937,0,0,-0.8614,-0.8663,-0.8674,-0.8693,-0.8732,-0.8763,-0.8805,-0.8845,-0.8867,-0.8899,-0.8934,-0.8989,-0.8982,-0.9007,-0.9016,-0.9043,-0.9089,-0.9033,-0.9034,-0.9043,-0.9154,-0.916,-0.9169,-0.9089,-0.9091,-0.9092,-0.9152,0,-0.8672,-0.8745,-0.8756,-0.882,-0.8857,-0.8858,-0.8894,-0.8922,-0.8938,-0.8971,-0.8989,-0.9028,-0.9016,-0.903,-0.9058,-0.9078,-0.9112,-0.9074,-0.9123,-0.9125,-0.9115,-0.918,-0.9186,-0.9241,-0.9159,-0.9161,-0.9162,0,-0.8749,-0.8782,-0.8849,-0.8882,-0.8898,-0.893,-0.8968,-0.9,-0.9032,-0.9041,-0.9068,-0.9073,-0.9116,-0.9095,-0.9155,-0.9128,-0.9149,-0.9162,-0.9164,-0.9171,-0.9147,-0.9189,-0.9259,-0.9267,-0.9174,-0.9173,-0.9172,0,-0.8788,-0.8849,-0.8897,-0.8914,-0.8954,-0.8976,-0.8994,-0.9024,-0.9048,-0.9081,-0.9096,-0.9134,-0.9156,-0.9185,-0.92,-0.9183,-0.9259,-0.924,-0.9269,-0.9269,-0.9286,-0.9285,-0.9362,-0.9298,-0.9298,-0.9298,-0.9298,0,-0.8852,-0.8894,-0.8915,-0.8945,-0.8991,-0.9004,-0.9049,-0.9067,-0.9093,-0.9127,-0.913,-0.9162,-0.9179,-0.9213,-0.9225,-0.9273,-0.9283,-0.9292,-0.9295,-0.9293,-0.9291,-0.9307,-0.9304,-0.93,-0.93,-0.9299,-0.9299,0,-0.8905,-0.8921,-0.8973,-0.9006,-0.9015,-0.9048,-0.9076,-0.9105,-0.912,-0.9162,-0.9173,-0.9197,-0.9237,-0.9254,-0.9304,-0.9312,-0.9367,-0.9367,-0.9356,-0.9358,-0.9386,-0.9384,-0.9477,-0.949,-0.9416,-0.9417,-0.9418,0,-0.8945,-0.8976,-0.9012,-0.9034,-0.9052,-0.9088,-0.9111,-0.9124,-0.9149,-0.9186,-0.9211,-0.9251,-0.9283,-0.9348,-0.937,-0.9408,-0.9409,-0.9439,-0.9415,-0.9411,-0.941,-0.9408,-0.9412,-0.9444,-0.9444,-0.9445,-0.9445,0,-0.9014,-0.902,-0.9053,-0.9089,-0.9117,-0.9146,-0.9174,-0.9192,-0.921,-0.9237,-0.9277,-0.9302,-0.9352,-0.9392,-0.9431,-0.945,-0.9451,-0.9452,-0.9461,-0.946,-0.9452,-0.9457,-0.9369,-0.9451,-0.945,-0.945,-0.9449,-0.9449,-0.9062,-0.909,-0.9119,-0.9156,-0.9178,-0.9205,-0.9233,-0.9251,-0.9284,-0.9325,-0.9331,-0.9374,-0.9404,-0.9456,-0.9477,-0.9511,-0.9504,-0.9517,-0.952,-0.9523,-0.9525,-0.9446,-0.9518,-0.9518,-0.9518,-0.9518,-0.9518,0,-0.9133,-0.9151,-0.9184,-0.9223,-0.9252,-0.9248,-0.9279,-0.9304,-0.9341,-0.9369,-0.94,-0.9447,-0.9485,-0.9509,-0.9547,-0.957,-0.9571,-0.958,-0.9579,-0.9583,-0.9529,-0.9518,-0.9578,-0.9578,-0.9578,-0.9578,-0.9578,-0.9578,-0.9173,-0.922,-0.9229,-0.9287,-0.9305,-0.9346,-0.9364,-0.9388,-0.941,-0.9461,-0.9492,-0.9507,-0.9534,-0.9574,-0.9608,-0.9614,-0.9629,-0.9638,-0.9644,-0.9593,-0.9587,-0.9581,-0.957,-0.9641,-0.9641,-0.9695,-0.9695,-0.9696]},{"header":{"parameterUnit":"m.s-1","parameterCategory":1,"la1":30.2991,"la2":30.254,"lo1":-89.0895,"lo2":-89.0444,"dy":0.0017,"dx":0.0017,"nx":28,"ny":28,"refTime":"2024-09-25T09:00:00:Z","depth":0,"parameterNumber":3,"parameterNumberName":"V-component_of_WINDS"},"data":[0,0,0,0,0,0,0,0,0,0,0,0,0,0,0,0,0,0,0,0,0,0,0,0,0,0,0,0,0,0,0,0,0,0,0,0,0,0,0,0,0,0,0,0,0,0,0,0,0,0,0,0,0,0,0,0,0,0,-7.6014,-7.6015,0,-7.6128,-7.6129,-7.613,-7.6044,-7.604,-7.6037,-7.6033,-7.6144,-7.615,-7.6156,0,0,0,0,0,0,0,0,0,0,0,0,0,-7.5717,-7.5722,-7.6014,-7.6015,-7.6017,-7.6128,-7.6129,-7.6131,-7.6045,-7.604,-7.6036,-7.6031,-7.6142,-7.6149,-7.6157,0,0,0,0,0,0,0,0,0,0,0,0,0,-7.5839,-7.5724,-7.6014,-7.5987,-7.5986,-7.6127,-7.6129,-7.6131,-7.6046,-7.604,-7.6034,-7.6029,-7.6139,-7.6148,-7.6158,-7.6329,0,0,-7.6187,-7.6192,0,0,0,0,0,0,0,0,-7.5833,-7.585,-7.599,-7.599,-7.5988,-7.6066,-7.6065,-7.6197,-7.6047,-7.6023,-7.6033,-7.6027,-7.6122,-7.6133,-7.6166,-7.6334,-7.6339,-7.6188,-7.6194,-7.6198,-7.6201,0,0,0,0,0,0,0,-7.5824,-7.5845,-7.6059,-7.5992,-7.5991,-7.5968,-7.5979,-7.609,-7.6102,-7.6025,-7.6019,-7.6034,-7.612,-7.6157,-7.6168,-7.6341,-7.6188,-7.6196,-7.6202,-7.6206,-7.6656,-7.6662,0,0,0,0,0,0,-7.5819,-7.5839,-7.6055,-7.6062,-7.5895,-7.5978,-7.5991,-7.6047,-7.6101,-7.6104,-7.6038,-7.6029,-7.6143,-7.6157,-7.6172,-7.6376,-7.6198,-7.6207,-7.6213,-7.665,-7.6657,-7.6664,0,0,0,0,0,0,-7.5813,-7.5839,-7.6051,-7.5949,-7.5974,-7.5989,-7.6053,-7.6052,-7.6088,-7.6111,-7.6112,-7.6074,-7.6139,-7.6158,-7.6291,-7.6379,-7.6211,-7.622,-7.6642,-7.6652,-7.666,-7.6787,0,0,0,0,0,0,-7.5805,-7.5838,-7.5904,-7.5951,-7.598,-7.6171,-7.6058,-7.6058,-7.6106,-7.6095,-7.6145,-7.6148,-7.6137,-7.6277,-7.6301,-7.6389,-7.6228,-7.6634,-7.6647,-7.6657,-7.6775,-7.68,-7.6821,0,0,0,0,0,-7.5794,-7.5934,-7.5908,-7.5935,-7.6064,-7.6176,-7.6192,-7.6178,-7.6114,-7.618,-7.6194,-7.6146,-7.6366,-7.6292,-7.6317,-7.641,-7.6629,-7.6643,-7.6657,-7.6765,-7.6795,-7.682,0,0,0,0,0,0,-7.5894,-7.5939,-7.5911,-7.607,-7.612,-7.6161,-7.6244,-7.621,-7.6277,-7.6264,-7.6242,-7.6254,-7.6394,-7.6415,-7.6332,-7.6579,-7.6487,-7.6506,-7.656,-7.6589,-7.6611,-7.6603,-7.6236,0,0,0,0,0,-7.5935,-7.6024,-7.6058,-7.6195,-7.6222,-7.6229,-7.6277,-7.6263,-7.6312,-7.6332,-7.6356,-7.6405,-7.6485,-7.6538,-7.6612,-7.6778,-7.6787,-7.6854,-7.6877,-7.6895,-7.6912,-7.7002,-7.7032,-7.6709,-7.6709,-7.6709,0,0,-7.602,-7.6056,-7.6113,-7.6216,-7.6253,-7.6344,-7.6247,-7.6347,-7.6415,-7.6347,-7.6475,-7.6495,-7.6547,-7.6697,-7.6765,-7.6719,-7.7004,-7.6913,-7.6927,-7.6935,-7.7019,-7.705,-7.7077,-7.6719,-7.6717,-7.6715,0,0,-7.6221,-7.6257,-7.6376,-7.6416,-7.6473,-7.6477,-7.6506,-7.6553,-7.6564,-7.6693,-7.6644,-7.6722,-7.686,-7.69,-7.6938,-7.7156,-7.7114,-7.718,-7.7299,-7.7386,-7.7411,-7.7434,-7.7512,-7.754,-7.7197,-7.7198,-7.7198,0,-7.6318,-7.6456,-7.6441,-7.6546,-7.6592,-7.6537,-7.6657,-7.6695,-7.6773,-7.6806,-7.6754,-7.6927,-7.6959,-7.7118,-7.7171,-7.7204,-7.7235,-7.7175,-7.7409,-7.7432,-7.7452,-7.7526,-7.7556,-7.7205,-7.7205,-7.7204,-7.7203,0,-7.6573,-7.6669,-7.6758,-7.6838,-7.6894,-7.7006,-7.7006,-7.7065,-7.7045,-7.7054,-7.7186,-7.7222,-7.7303,-7.7339,-7.732,-7.7496,-7.7466,-7.7413,-7.7319,-7.7491,-7.756,-7.7589,-7.7217,-7.7214,-7.7212,-7.721,0,0,-7.684,-7.6912,-7.6944,-7.6981,-7.7041,-7.7114,-7.7222,-7.7304,-7.7355,-7.7411,-7.7501,-7.762,-7.7571,-7.7614,-7.7599,-7.7675,-7.7846,-7.7612,-7.7613,-7.7655,-7.8042,-7.8083,-7.8116,-7.7819,-7.7824,-7.7828,-7.8038,0,-7.7045,-7.7237,-7.7226,-7.7405,-7.7494,-7.7443,-7.7538,-7.7584,-7.7596,-7.7671,-7.7682,-7.7767,-7.7696,-7.7722,-7.7795,-7.781,-7.7924,-7.7794,-7.7901,-7.7905,-7.789,-7.8152,-7.8196,-7.8392,-7.8065,-7.807,-7.8073,0,-7.7309,-7.7377,-7.7566,-7.7615,-7.7651,-7.7737,-7.7811,-7.7884,-7.7935,-7.7938,-7.7988,-7.796,-7.8068,-7.7973,-7.8121,-7.8033,-7.8076,-7.809,-7.8097,-7.8106,-7.8,-7.8169,-7.8454,-7.8484,-7.8115,-7.8112,-7.8109,0,-7.7486,-7.7624,-7.7756,-7.7788,-7.7847,-7.7908,-7.7935,-7.7981,-7.8031,-7.8096,-7.8128,-7.8203,-7.8244,-7.8303,-7.8295,-7.8226,-7.8446,-7.835,-7.8451,-7.8451,-7.85,-7.8497,-7.8796,-7.8527,-7.8526,-7.8526,-7.8525,0,-7.7716,-7.7834,-7.7836,-7.7917,-7.8047,-7.8033,-7.8161,-7.8181,-7.8223,-7.8305,-7.8265,-7.8343,-7.8328,-7.8406,-7.84,-7.8524,-7.8542,-7.8547,-7.8544,-7.8551,-7.8551,-7.8579,-7.8565,-7.8534,-7.8532,-7.853,-7.8529,0,-7.7935,-7.7942,-7.8082,-7.8127,-7.8141,-7.8235,-7.8273,-7.8349,-7.8357,-7.8462,-7.8486,-7.8498,-7.8587,-7.8586,-7.8686,-7.8683,-7.8835,-7.8816,-7.8819,-7.8815,-7.8917,-7.8907,-7.9245,-7.9288,-7.899,-7.8993,-7.8996,0,-7.8082,-7.8172,-7.8228,-7.8282,-7.8313,-7.84,-7.8452,-7.8441,-7.8496,-7.8562,-7.863,-7.8715,-7.8783,-7.8928,-7.8945,-7.9021,-7.9004,-7.9117,-7.9015,-7.902,-7.9007,-7.9002,-7.9011,-7.9137,-7.9141,-7.9143,-7.9146,0,-7.8342,-7.8341,-7.8419,-7.8498,-7.8562,-7.8623,-7.8679,-7.8725,-7.872,-7.8784,-7.8876,-7.8929,-7.9033,-7.9118,-7.9193,-7.9218,-7.9182,-7.9178,-7.9205,-7.9213,-7.9212,-7.9215,-7.8874,-7.917,-7.9167,-7.9166,-7.9164,-7.9163,-7.853,-7.8608,-7.866,-7.8748,-7.8789,-7.8843,-7.8917,-7.8936,-7.9013,-7.9099,-7.9087,-7.919,-7.9238,-7.9334,-7.9367,-7.9446,-7.9405,-7.9445,-7.9455,-7.9466,-7.9477,-7.9199,-7.9459,-7.9458,-7.9457,-7.9457,-7.9456,0,-7.8788,-7.882,-7.8901,-7.8982,-7.9051,-7.9013,-7.9073,-7.9133,-7.9225,-7.9274,-7.9343,-7.9449,-7.9531,-7.9556,-7.9635,-7.9694,-7.9679,-7.9715,-7.9711,-7.9717,-7.9508,-7.9477,-7.9726,-7.9726,-7.9726,-7.9726,-7.9726,-7.9726,-7.8931,-7.9061,-7.9067,-7.9217,-7.9246,-7.9349,-7.9387,-7.9436,-7.9476,-7.9597,-7.9666,-7.9682,-7.9721,-7.9803,-7.9877,-7.9882,-7.9913,-7.9957,-7.9955,-7.9759,-7.9732,-7.9706,-7.9677,-7.9963,-7.9964,-8.0157,-8.0159,-8.016]}]]